Weather in Pushchino

Russia / Ryazan Oblast     54°33′07″N   39°42′28″E
temp.,
°C
wind,
m/s
gust,
m/s
humid.,
%
clouds,
%
prec.,
mm/h
press.,
hPa
HPBL,
m
27 february, sat
sat2700:00+2w8169398 0.1 1002705
03:00+1wnw8168984 0.1 1002803
06:00+1w9168999 0.0 1001934
09:00−4nnw9158899 0.8 1003859
12:00−8nnw71288100 0.0 1006657
15:00−8nnw61088100 0.1 1009564
18:00−8nnw4894100 0.0 1010173
21:00−8nnw379599 0.1 1013249
28 february, sun
sun2800:00−8nw3496100 0.1 1013108
03:00−10nw489686 0.1 1014149
06:00−10nw349679 0.1 101491
09:00−8nnw259585 0.4 1015221
12:00−6nnw359397 0.1 1015375
15:00−4nnw369296 0.2 1015514
18:00−4n2496100 0.1 1016187
21:00−5nne2396100 0.1 1019101
1 march, mon
mon100:00−6ene2296100 0.1 102151
03:00−9n229699 0.1 102321
06:00−12nnw129779 0.0 102421
09:00−9w119661 0.0 102521
12:00−5wsw349488 0.0 1024237
15:00−3wsw479491 0.1 1024373
18:00−2wsw5109199 0.0 1021488
21:00−1wsw61292100 0.1 1019476
2 march, tue
tue200:000w71392100 0.0 1016532
03:00+1wsw71492100 0.0 1013627
06:00+1wnw81498100 0.0 1009714
09:00+1nw81492100 0.3 1008927
12:00+1nw8139191 0.2 10091026
15:00+1nw8138595 0.3 10101012
18:00−1nw6139494 0.1 1010700
21:00−3nw6148986 0.3 1011544
3 march, wed
wed300:00−3nw6139463 0.0 1011501
03:00−4nw6129477 0.3 1012455
06:00−4nw6139398 0.1 1013495
09:00−4nnw8138999 0.1 1015907
12:00−2nnw7118490 0.0 1017992
15:00−2nw6118693 0.1 10181179
18:00−4nnw4108896 0.2 1018278
21:00−6nw499179 0.3 1020164